Regional Weather Roundup
Issued by NWS

Home | Current Version | Previous Version | Graphics & Text | Print | Product List | Glossary On
Versions: 1 2 3 4 5 6 7 8 9 10 11 12 13 14 15 16 17 18 19 20 21 22 23 24 25 26 27 28 29 30 31 32 33 34 35 36 37 38 39 40 41 42 43 44 45 46 47 48 49 50
952
ASUS44 KLIX 192310
RWRLA
LOUISIANA WEATHER ROUNDUP
NATIONAL WEATHER SERVICE NEW ORLEANS LA
600 PM CDT SAT APR 19 2014

NOTE: "FAIR" INDICATES FEW OR NO CLOUDS BELOW 12,000 FEET WITH NO
      SIGNIFICANT WEATHER AND/OR OBSTRUCTIONS TO VISIBILITY.
      SKY/WX - SKY CONDITION AND SIGNIFICANT WEATHER.
      TMP - AIR TEMPERATURE.    DP   - DEWPOINT TEMPERATURE.
      RH  - RELATIVE HUMIDITY.  PRES - PRESSURE.
      HX  - HEAT INDEX.         WCI  - WIND CHILL INDEX.

*  THESE STATIONS ARE NOT NWS OR FAA STATIONS AND ARE NOT UNDER
   NWS QUALITY CONTROL.

LAZ040-048-061>063-065-066-069-200000-
SOUTHEAST LOUISIANA

CITY           SKY/WX    TMP DP  RH WIND       PRES   REMARKS
N.O. AUDUBON     N/A     78  55  44 MISG        N/A
N.O. INTL ARPT MOSUNNY   77  53  43 NW5       30.08S
N.O. LAKEFRONT SUNNY     73  60  63 W9        30.08S
N.O. DOWNTOWN* FAIR      79  48  34 N7        30.08F
SLIDELL        SUNNY     79  50  36 N8        30.06S
BATON ROUGE    SUNNY     80  52  37 VRB6      30.09R
BOOTHVILLE     SUNNY     74  53  48 NW12      30.09R
BELLE CHASSE   MOSUNNY   78  49  35 NW6       30.07S
BOGALUSA*        N/A     79  49  34 N10       30.08F
GALLIANO*      CLEAR     77  53  43 NW5       30.10R
NEW ROADS*     FAIR      77  49  37 NW9       30.10S
GONZALES*      FAIR      78  52  40 NW6       30.08S
HAMMOND*       SUNNY     81  46  30 NW9       30.09S
HOUMA*         SUNNY     79  48  34 N6        30.09R
PORT FOURCHON* CLEAR     72  57  60 SW7       30.12R

$$

LAZ041-044-053-054-200000-
SOUTHWEST LOUISIANA

CITY           SKY/WX    TMP DP  RH WIND       PRES   REMARKS
LAKE CHARLES   SUNNY     78  53  41 E8        30.10S
LAFAYETTE      SUNNY     79  50  36 N5        30.10S
PATTERSON      SUNNY     79  52  38 NW6       30.14S
SALT POINT       N/A     73  63  70 VRB6      30.10S
NEW IBERIA     SUNNY     79  52  38 NW7       30.10S
CHENAULT AIRPK NOT AVBL

$$

LAZ027-028-200000-
CENTRAL LOUISIANA

CITY           SKY/WX    TMP DP  RH WIND       PRES   REMARKS
FORT POLK      SUNNY     78  53  41 SE3       30.11S
ALEXANDRIA INT SUNNY     77  53  43 W3        30.09S
ALEXANDRIA     SUNNY     80  51  36 NE6       30.10S

$$

LAZ001-002-200000-
NORTHWEST LOUISIANA

CITY           SKY/WX    TMP DP  RH WIND       PRES   REMARKS
SHREVEPORT     MOSUNNY   79  51  37 CALM      30.11S
BARKSDALE AFB  PTSUNNY   78  52  39 VRB3      30.11F
DTN SHREVEPORT MOSUNNY   76  52  43 CALM      30.11F

$$

LAZ014-016-200000-
NORTHEAST LOUISIANA

CITY           SKY/WX    TMP DP  RH WIND       PRES   REMARKS
MONROE         SUNNY     77  54  44 CALM      30.13S
TALLULAH       SUNNY     77  50  38 N9        30.12S

$$




USA.gov is the U.S. government's official web portal to all federal, state and local government web resources and services.